Flag for Germany Weather past 2 weeks in Dinslaken, North Rhine-Westphalia, Germany

Now
49 °F

Low clouds.


Feels Like: 47 °F
Forecast: 48 / 56 °F
Wind: 5 mph from West

Location: Essen

Current Time: Dec 17, 2014 at 10:56:27 PM

Latest Report: Dec 17, 2014 at 10:00 PM


Visibility: 2 mi

Pressure: 29.79 "Hg

Humidity: 100%

Dew point: 49 °F

Location of DinslakenLocation

Historic Weather in Dinslaken — Graph

°F

Dinslaken temperature yesterday

Maximum temperature yesterday: 43 °F (at 1:00 PM)
Minimum temperature yesterday: 37 °F (at 11:00 PM)
Average temperature yesterday: 40 °F

Past Weeks' High & Low Weather Summary

 TemperatureHumidityPressure
High49 °F (Dec 12, 3:00 PM)100% (Dec 6, 3:00 AM)30.37 "Hg (Dec 6, 3:00 AM)
Low28 °F (Dec 3, 6:00 PM)65% (Dec 7, 3:00 PM)29.38 "Hg (Dec 12, 3:00 PM)
Average38 °F92%29.98 "Hg
* Reported Dec 2 9:00 PM — Dec 17 9:00 PM, Dinslaken, Weather by CustomWeather, © 2014

Note: Actual official high and low records may vary slightly from our data, if they occured in-between our weather recording intervals... More about our weather records

Advertising

Dinslaken weather history for previous 24 hours

 ConditionsComfort  
Time TempWeatherWind HumidityBarometerVisibility
9:00 PM
Dec 17
48 °FDrizzle. Low clouds.5 mph100%29.77 "Hg1 mi
8:00 PM48 °FLow clouds.5 mph100%29.74 "Hg1 mi
7:00 PM48 °FLow clouds.5 mph100%29.71 "Hg1 mi
6:00 PM47 °FDrizzle. Low clouds.3 mph100%29.69 "Hg1 mi
5:00 PM46 °FDrizzle. Low clouds.5 mph100%29.67 "Hg1 mi
4:00 PM45 °FLight freezing rain. Low clouds.5 mph100%29.65 "Hg2 mi
3:00 PM44 °FDrizzle. Low clouds.5 mph100%29.63 "Hg1 mi
2:00 PM42 °FDrizzle. Low clouds.6 mph100%29.61 "Hg2 mi
1:00 PM41 °FLight freezing rain. Low clouds.6 mph100%29.62 "Hg1 mi
12:00 PM40 °FLight freezing rain. Low clouds.7 mph100%29.63 "Hg2 mi
11:00 AM39 °FLight freezing rain. Low clouds.7 mph99%29.65 "Hg2 mi
10:00 AM38 °FLight freezing rain. Low clouds.7 mph98%29.66 "Hg1 mi
9:00 AM38 °FLight freezing rain. Low clouds.6 mph97%29.71 "Hg2 mi
8:00 AM38 °FLow clouds.6 mph89%29.74 "Hg12 mi
7:00 AM39 °FLight rain. Overcast.6 mph85%29.78 "Hg12 mi
6:00 AM38 °FOvercast.3 mph89%29.82 "Hg9 mi
5:00 AM38 °FOvercast.5 mph93%29.85 "Hg7 mi
4:00 AM38 °FFog.5 mph97%29.88 "Hg3 mi
3:00 AM37 °FFog.3 mph100%29.90 "Hg2 mi
2:00 AM38 °FFog.3 mph99%29.93 "Hg2 mi
1:00 AM38 °FFog.5 mph98%29.94 "Hg2 mi
12:00 AM37 °FFog.3 mph99%29.95 "Hg2 mi
11:00 PM
Dec 16
37 °FOvercast.3 mph98%29.95 "Hg5 mi
10:00 PM38 °FOvercast.3 mph97%29.96 "Hg6 mi
Weather by CustomWeather, © 2014

See weather overviewHow to use our weather pages